Location: Newark
(6.0333°S, 36.1333°E)
Time: 18:13:11
(UTC+00:00)

ISS - Visible Passes

Search period start: 19 November 2019 00:00
Search period end: 29 November 2019 00:00
Orbit: 412 x 421 km, 51.6° (Epoch: 19 November)

Date Brightness Start Highest point End Pass type
(mag) Time Alt. Az. Time Alt. Az. Time Alt. Az.
20 Nov -3.8 02:34:21 10° NW 02:37:41 73° SW 02:41:02 10° SSE visible
21 Nov -2.8 01:48:28 33° NNE 01:49:23 41° NE 01:52:34 10° SE visible
22 Nov -0.6 01:02:38 14° E 01:02:38 14° E 01:03:27 10° E visible
22 Nov -1.7 02:35:39 10° W 02:37:37 15° SW 02:39:35 10° SSW visible
23 Nov -2.6 01:49:40 30° SW 01:49:40 30° SW 01:52:17 10° SSE visible
24 Nov -0.7 01:03:39 14° SSE 01:03:39 14° SSE 01:04:13 10° SE visible
